Location: New York
(40.7127°N, 74.0060°W)
Time: 18:00:06
(UTC-04:00)

VELOX 1 - Pass Details

Date: 02 May 2024
Orbit: 605 x 617 km, 98.3° (Epoch: 27 May)

Event Time Altitude Azimuth Distance (km) Brightness Sun altitude
Rises 21:52:45 0° 360° (N) 2,901 ? -19.8°
Reaches altitude 10° 21:55:15 10° 347° (NNW) 1,990 ? -20.1°
Maximum altitude 21:58:45 25° 293° (WNW) 1,262 ? -20.6°
Drops below altitude 10° 22:02:15 10° 238° (WSW) 1,974 ? -21.0°
Sets 22:04:42 0° 225° (SW) 2,873 ? -21.4°
